This demonstration page uses our WeatherBlox Daily Observations layout. Learn more.

39.08367, -84.50855

Hourly Observations for January 3, 2019

Temp ( °F °C ) Dew Point ( °F °C ) Humidity (%) Winds ( mph kmh ) Pressure ( in mb ) Visibility ( mi km ) Precip ( " mm )
12:32 am 00:32 Cloudy 38 3.3 33 0.6 83 83 WNW 8 13 30.12 1020 9 14.484096 0 0
12:50 am 00:50 Cloudy 37 3 32 0 81 81 W 13 20 30.12 1020 10 16.09344 0 0
12:53 am 00:53 Cloudy 38 3.3 32 0 79 79 WNW 9 15 30.12 1020 10 16.09344 0 0
1:53 am 01:53 Cloudy 38 3.3 31 -0.6 76 76 NW 7 11 30.12 1020 10 16.09344 0 0
2:53 am 02:53 Cloudy 37 2.8 29 -1.7 73 73 W 9 15 30.09 1019 10 16.09344 0 0
3:53 am 03:53 Cloudy 37 2.8 29 -1.7 73 73 WNW 5 7 30.09 1019 10 16.09344 0 0
4:53 am 04:53 Cloudy 37 2.8 29 -1.7 73 73 W 6 9 30.09 1019 10 16.09344 0 0
5:53 am 05:53 Cloudy 37 2.8 29 -1.7 73 73 NW 3 6 30.12 1020 10 16.09344 0 0
6:53 am 06:53 Cloudy 36 2.2 29 -1.7 76 76 NNW 3 6 30.12 1020 10 16.09344 0 0
7:53 am 07:53 Cloudy 36 2.2 28 -2.2 73 73 NNW 6 9 30.12 1020 10 16.09344 0 0
8:53 am 08:53 Cloudy 36 2.2 29 -1.7 76 76 WSW 5 7 30.15 1021 10 16.09344 0 0
9:53 am 09:53 Cloudy 36 2.2 29 -1.7 76 76 WSW 6 9 30.18 1022 10 16.09344 0 0
10:53 am 10:53 Cloudy 37 2.8 29 -1.7 73 73 SW 5 7 30.18 1022 10 16.09344 0 0
11:53 am 11:53 Mostly Cloudy 39 3.9 29 -1.7 67 67 Calm 30.12 1020 10 16.09344 0 0
12:53 pm 12:53 Mostly Cloudy 40 4.4 30 -1.1 68 68 W 3 6 30.09 1019 10 16.09344 0 0
1:38 pm 13:38 Partly Cloudy 41 5 31 -0.6 67 67 S 6 9 30.09 1019 10 16.09344 0 0
1:53 pm 13:53 Partly Cloudy 41 5 30 -1.1 65 65 SW 6 9 30.09 1019 10 16.09344 0 0
2:53 pm 14:53 Sunny 42 5.6 30 -1.1 62 62 W 6 9 30.09 1019 10 16.09344 0 0
3:53 pm 15:53 Sunny 42 5.6 30 -1.1 62 62 W 5 7 30.09 1019 10 16.09344 0 0
4:53 pm 16:53 Sunny 38 3.3 31 -0.6 76 76 WSW 6 9 30.09 1019 10 16.09344 0 0
5:53 pm 17:53 Clear 35 1.7 31 -0.6 85 85 S 5 7 30.06 1018 10 16.09344 0 0
6:53 pm 18:53 Clear 35 1.7 31 -0.6 85 85 Calm 30.09 1019 10 16.09344 0 0
7:53 pm 19:53 Clear 34 1.1 30 -1.1 85 85 Calm 30.09 1019 10 16.09344 0 0
8:53 pm 20:53 Clear 32 0 29 -1.7 88 88 Calm 30.09 1019 8 12.874752 0 0
9:53 pm 21:53 Clear with Mist and Fog 32 0 30 -1.1 92 92 Calm 30.09 1019 6 9.656064 0 0
10:53 pm 22:53 Clear with Mist and Fog 32 0 29 -1.7 88 88 Calm 30.09 1019 4 6.437376 0 0
10:59 pm 22:59 Clear with Mist and Fog 31 -0.6 29 -1.7 92 92 Calm 30.12 1020 1.75 2.816352 0 0
11:09 pm 23:09 Clear with Mist and Fog 31 -0.6 30 -1.1 96 96 Calm 30.12 1020 3 4.828032 0 0
11:53 pm 23:53 Clear with Mist and Fog 32 0 30 -1.1 92 92 Calm 30.06 1018 4 6.437376 0 0

Powered by AerisWeather